Date String (YYYY-MM-DD hh:mm:ss) UTC,Instrument flags,absolute air pressure of the measurement (hPa),sample flow rate (lpm),inlet stack bypass flow (lpm),air temperature of the measurement (°C),ambient temperature measured by the external sensor (°C),aerosol sample conditioner tube jacket temperature (°C),OPC LED temperature (°C),internal box temperature (°C),relative humidity of the measurement (%),span deviation,mass concentration of particles derived from Lorenz-Mie calculation of OPC scattering (μg/m³),mass concentration of particles derived from Lorenz-Mie calculation of OPC scattering (μg/m³),mass concentration of particles derived from Lorenz-Mie calculation of OPC scattering (μg/m³)
DateTimeUTC,F1_M11,P_M11,Q1_M11,Q2_M11,T1_M11,T2_M11,T3_M11,T4_M11,T5_M11,U1_M11,ZSPAN_M11,X0_M11,X2_M11,X1_M11
2024-02-15 11:00:00,SystemResetWarning,0828.1,5.00,000.00,018.5,018.1,000.0,026.9,020.2,20.8,0000.9,0008.83,0006.98,0006.91
2024-02-15 11:01:00,SystemResetWarning,0828.0,5.01,000.00,018.5,018.1,000.0,026.9,020.2,20.8,0000.8,0008.82,0006.96,0006.90
2024-02-15 11:02:00,SystemResetWarning,0827.9,5.00,000.00,018.5,018.1,000.0,026.9,020.2,20.8,0000.8,0008.82,0006.96,0006.90
2024-02-15 11:03:00,SystemResetWarning,0827.9,5.00,000.00,018.5,018.0,000.0,026.9,020.2,20.9,0000.8,0008.87,0007.00,0006.92
2024-02-15 11:04:00,SystemResetWarning,0827.8,4.99,000.00,018.4,018.0,000.0,026.9,020.2,20.9,0000.9,0008.90,0007.02,0006.94
2024-02-15 11:05:00,SystemResetWarning,0827.7,4.98,000.00,018.4,018.0,000.0,026.9,020.1,20.8,0001.1,0008.99,0007.06,0006.99
2024-02-15 11:06:00,SystemResetWarning,0827.8,4.99,000.00,018.4,018.0,000.0,026.9,020.1,20.9,0001.4,0009.09,0007.10,0007.03
2024-02-15 11:07:00,SystemResetWarning,0827.8,5.01,000.00,018.4,018.0,000.0,026.9,020.1,20.9,0001.5,0009.16,0007.15,0007.08
2024-02-15 11:08:00,SystemResetWarning,0827.8,5.01,000.00,018.4,018.0,000.0,026.9,020.1,20.9,0001.4,0009.23,0007.20,0007.14
2024-02-15 11:09:00,SystemResetWarning,0828.1,5.01,000.00,018.4,018.0,000.0,026.9,020.1,20.9,0001.3,0009.31,0007.25,0007.17
2024-02-15 11:10:00,SystemResetWarning,0828.0,5.01,000.00,018.4,018.0,000.0,026.9,020.1,20.9,0001.1,0009.47,0007.30,0007.20
2024-02-15 11:11:00,SystemResetWarning,0827.8,5.00,000.00,018.4,018.0,000.0,026.9,020.1,20.9,0001.0,0009.58,0007.35,0007.22
2024-02-15 11:12:00,SystemResetWarning,0827.9,5.00,000.00,018.4,018.0,000.0,026.9,020.1,21.0,0001.0,0009.67,0007.41,0007.29
2024-02-15 11:13:00,SystemResetWarning,0827.9,4.99,000.00,018.4,017.9,000.0,026.9,020.1,21.0,0000.8,0009.70,0007.42,0007.30
2024-02-15 11:14:00,SystemResetWarning,0828.0,4.99,000.00,018.4,017.9,000.0,026.9,020.1,21.0,0000.7,0009.72,0007.40,0007.29
2024-02-15 11:15:00,SystemResetWarning,0828.1,5.02,000.00,018.4,017.9,000.0,026.9,020.1,20.9,0000.4,0009.80,0007.41,0007.30
2024-02-15 11:16:00,SystemResetWarning,0828.1,5.01,000.00,018.4,017.9,000.0,026.9,020.1,20.9,0000.5,0009.80,0007.40,0007.30
2024-02-15 11:17:00,SystemResetWarning,0828.0,5.00,000.00,018.4,017.9,000.0,026.9,020.1,20.9,0000.6,0009.75,0007.38,0007.29
2024-02-15 11:18:00,SystemResetWarning,0828.0,5.00,000.00,018.4,017.9,000.0,026.8,020.1,20.9,0000.8,0009.74,0007.37,0007.27
2024-02-15 11:19:00,SystemResetWarning,0828.1,5.00,000.00,018.4,017.9,000.0,026.8,020.2,20.9,0000.4,0009.82,0007.37,0007.25
2024-02-15 11:20:00,SystemResetWarning,0827.8,5.00,000.00,018.4,017.9,000.0,026.8,020.1,20.9,0000.4,0009.84,0007.37,0007.25
2024-02-15 11:21:00,SystemResetWarning,0827.9,5.00,000.00,018.4,017.9,000.0,026.8,020.1,20.9,0000.4,0009.79,0007.35,0007.26
2024-02-15 11:22:00,SystemResetWarning,0828.1,4.99,000.00,018.4,017.9,000.0,026.9,020.2,21.0,0000.2,0009.80,0007.34,0007.25
2024-02-15 11:23:00,SystemResetWarning,0828.1,4.99,000.00,018.4,017.9,000.0,026.8,020.2,20.9,0000.1,0009.77,0007.31,0007.22
2024-02-15 11:24:00,SystemResetWarning,0828.1,4.99,000.00,018.4,017.9,000.0,026.8,020.1,20.9,0000.5,0009.75,0007.31,0007.21
2024-02-15 11:25:00,SystemResetWarning,0828.0,5.00,000.00,018.4,017.9,000.0,026.8,020.1,20.9,0000.9,0009.78,0007.34,0007.24
2024-02-15 11:26:00,SystemResetWarning,0828.0,5.00,000.00,018.3,017.9,000.0,026.8,020.2,20.9,0000.9,0009.71,0007.34,0007.25
2024-02-15 11:27:00,SystemResetWarning,0828.1,5.01,000.00,018.3,017.9,000.0,026.8,020.1,20.9,0000.8,0009.76,0007.37,0007.26
2024-02-15 11:28:00,SystemResetWarning,0828.0,5.00,000.00,018.3,017.9,000.0,026.8,020.1,20.9,0000.7,0009.77,0007.38,0007.26
2024-02-15 11:29:00,SystemResetWarning,0827.8,5.01,000.00,018.3,017.9,000.0,026.8,020.1,20.9,0000.3,0009.83,0007.40,0007.28
2024-02-15 11:30:00,SystemResetWarning,0827.9,5.00,000.00,018.3,017.9,000.0,026.8,020.1,20.9,0000.5,0009.79,0007.41,0007.30
2024-02-15 11:31:00,SystemResetWarning,0828.1,5.00,000.00,018.3,017.9,000.0,026.8,020.2,20.9,0000.6,0009.74,0007.40,0007.28
2024-02-15 11:32:00,SystemResetWarning,0828.1,5.00,000.00,018.4,017.9,000.0,026.8,020.2,20.9,0000.6,0009.69,0007.38,0007.27
2024-02-15 11:33:00,SystemResetWarning,0828.0,5.00,000.00,018.3,017.9,000.0,026.9,020.2,20.9,0000.7,0009.63,0007.38,0007.27
2024-02-15 11:34:00,SystemResetWarning,0828.0,5.00,000.00,018.4,017.9,000.0,026.9,020.2,20.9,0000.8,0009.66,0007.39,0007.29
2024-02-15 11:35:00,SystemResetWarning,0827.7,5.00,000.00,018.3,017.9,000.0,026.8,020.1,20.9,0000.6,0009.74,0007.43,0007.32
2024-02-15 11:36:00,SystemResetWarning,0827.8,5.00,000.00,018.3,017.9,000.0,026.8,020.1,20.9,0000.5,0009.79,0007.45,0007.34
2024-02-15 11:37:00,SystemResetWarning,0827.8,4.99,000.00,018.3,017.9,000.0,026.8,020.1,20.9,0000.6,0009.78,0007.44,0007.33
2024-02-15 11:38:00,SystemResetWarning,0828.0,5.00,000.00,018.3,017.9,000.0,026.8,020.1,20.9,0000.9,0009.76,0007.43,0007.32
2024-02-15 11:39:00,SystemResetWarning,0827.9,5.00,000.00,018.3,017.9,000.0,026.8,020.1,20.9,0000.9,0009.76,0007.43,0007.33
2024-02-15 11:40:00,SystemResetWarning,0827.9,4.99,000.00,018.3,017.9,000.0,026.8,020.1,20.9,0000.7,0009.74,0007.42,0007.32
2024-02-15 11:41:00,SystemResetWarning,0827.8,5.00,000.00,018.3,017.9,000.0,026.8,020.1,20.9,0000.5,0009.69,0007.39,0007.30
2024-02-15 11:42:00,SystemResetWarning,0827.8,5.01,000.00,018.3,017.9,000.0,026.8,020.1,20.9,0000.3,0009.68,0007.39,0007.30
2024-02-15 11:43:00,SystemResetWarning,0827.8,5.01,000.00,018.3,017.9,000.0,026.8,020.1,20.8,0000.3,0009.68,0007.39,0007.30
2024-02-15 11:44:00,SystemResetWarning,0827.8,5.00,000.00,018.3,017.9,000.0,026.8,020.1,20.8,0000.4,0009.70,0007.41,0007.32
2024-02-15 11:45:00,SystemResetWarning,0827.8,4.99,000.00,018.3,017.9,000.0,026.8,020.1,20.8,0000.5,0009.69,0007.41,0007.33
2024-02-15 11:46:00,SystemResetWarning,0827.7,5.01,000.00,018.3,017.9,000.0,026.8,020.0,20.8,0000.7,0009.66,0007.40,0007.33
2024-02-15 11:47:00,SystemResetWarning,0827.7,5.01,000.00,018.3,017.9,000.0,026.8,020.1,20.8,0000.7,0009.66,0007.41,0007.35
2024-02-15 11:48:00,SystemResetWarning,0827.8,5.00,000.00,018.3,017.8,000.0,026.8,020.0,20.9,0000.8,0009.75,0007.45,0007.37
2024-02-15 11:49:00,SystemResetWarning,0827.8,4.99,000.00,018.3,017.8,000.0,026.8,020.0,20.9,0000.8,0009.81,0007.48,0007.40
2024-02-15 11:50:00,SystemResetWarning,0827.6,4.99,000.00,018.2,017.8,000.0,026.8,020.0,20.9,0000.8,0009.78,0007.47,0007.39
2024-02-15 11:51:00,SystemResetWarning,0827.7,5.01,000.00,018.2,017.8,000.0,026.8,020.0,21.0,0000.9,0009.75,0007.47,0007.40
2024-02-15 11:52:00,SystemResetWarning,0827.8,5.00,000.00,018.2,017.8,000.0,026.8,020.0,21.0,0001.0,0009.82,0007.50,0007.42
2024-02-15 11:53:00,SystemResetWarning,0827.8,5.01,000.00,018.2,017.8,000.0,026.8,020.0,21.0,0001.2,0009.89,0007.53,0007.42
2024-02-15 11:54:00,SystemResetWarning,0827.8,5.00,000.00,018.2,017.8,000.0,026.8,020.0,21.0,0001.4,0009.90,0007.53,0007.43
2024-02-15 11:55:00,SystemResetWarning,0827.7,4.99,000.00,018.2,017.8,000.0,026.8,020.0,21.0,0001.4,0009.91,0007.54,0007.43
2024-02-15 11:56:00,SystemResetWarning,0827.6,4.99,000.00,018.2,017.8,000.0,026.8,020.0,21.0,0001.2,0009.90,0007.53,0007.43
2024-02-15 11:57:00,SystemResetWarning,0827.7,5.00,000.00,018.2,017.8,000.0,026.8,020.0,21.0,0000.9,0009.91,0007.54,0007.44
2024-02-15 11:58:00,SystemResetWarning,0827.8,5.01,000.00,018.2,017.8,000.0,026.8,020.0,21.0,0000.8,0009.93,0007.54,0007.44
2024-02-15 11:59:00,SystemResetWarning,0827.7,5.00,000.00,018.2,017.8,000.0,026.8,020.0,21.0,0000.8,0009.93,0007.55,0007.45
